Location: Monfort
(47.1967°N, 0.2115°W)
Time: 11:25:58
(UTC+00:00)

Cosmos 1400 Rocket - Pass Details

Date: 24 October 2020
Orbit: 521 x 568 km, 81.2° (Epoch: 27 November)

Event Time Altitude Azimuth Distance (km) Brightness Sun altitude
Rises 19:12:39 0° 210° (SSW) 2,757 6.7 -23.7°
Reaches altitude 10° 19:14:56 10° 218° (SW) 1,863 5.9 -24.1°
Maximum altitude 19:18:47 38° 287° (WNW) 880 4.3 -24.7°
Drops below altitude 10° 19:22:38 10° 356° (N) 1,862 5.6 -25.4°
Sets 19:24:57 0° 5° (N) 2,756 6.5 -25.8°
